Weather History for Pittsfield, MA

Change the Weather History Date:

Sunday, March 3, 2013

  Actual Average Record
Temperature  
Mean Temperature 23 °F 28 °F  
Max Temperature 26 °F 37 °F 60 °F (1964)
Min Temperature 19 °F 18 °F -9 °F (1950)
Degree Days  
Heating Degree Days 42 37  
Month to date heating degree days 112 113  
Since 1 July heating degree days 5051 5493  
Cooling Degree Days 0 0  
Month to date cooling degree days 0 0  
Year to date cooling degree days 0 0  
Moisture  
Dew Point 17 °F    
Average Humidity 82    
Maximum Humidity 96    
Minimum Humidity 68    
Precipitation  
Precipitation T in 0.08 in 0.70 in (1954)
Month to date precipitation 0.02 0.25  
Year to date precipitation 3.65 5.85  
Sea Level Pressure  
Sea Level Pressure 29.67 in    
Wind  
Wind Speed 11 mph (WNW)    
Max Wind Speed 20 mph    
Max Gust Speed 28 mph    
Visibility 6 miles    
Events Snow    
T = Trace of Precipitation, MM = Missing Value Source: NWS Daily Summary

Daily Weather History Graph

Daily Weather History Graph

Search for Another Location

Airport:

Trip Planner

Search our weather history database for the weather conditions in past years. The results will help you decide how hot, cold, wet, or windy it might be!

Date:

Astronomy

Mar. 03, 2013 Rise Set
Actual Time 6:24 AM EST 5:45 PM EST
Civil Twilight 5:56 AM EST 6:13 PM EST
Nautical Twilight 5:24 AM EST 6:46 PM EST
Astronomical Twilight 4:51 AM EST 7:19 PM EST
Moon No Moon Rise 9:29 AM EST (3/3)
Length of Visible Light 12h 17m
Length of Day
11h 20m
Waning Gibbous, 64% of the Moon is Illuminated
Mar 3
Waning Gibbous
Mar 4
Last Quarter
Mar 11
New
Mar 19
First Quarter
Mar 27
Full

Hourly Weather History & Observations

Time (EST) Temp. Windchill Dew Point Humidity Pressure Visibility Wind Dir Wind Speed Gust Speed Precip Events Conditions
12:54 AM 23.0 °F 12.4 °F 19.9 °F 88% 29.69 in 10.0 mi WNW 10.4 mph - 0.00 in   Overcast
1:54 AM 21.9 °F 11.0 °F 19.0 °F 89% 29.69 in 10.0 mi WNW 10.4 mph - N/A   Overcast
2:54 AM 21.0 °F 9.9 °F 18.0 °F 88% 29.68 in 10.0 mi West 10.4 mph - N/A   Overcast
4:54 AM 21.0 °F 9.9 °F 17.1 °F 85% 29.68 in 10.0 mi WNW 10.4 mph - N/A   Overcast
5:54 AM 19.9 °F 9.3 °F 16.0 °F 85% 29.70 in 10.0 mi WNW 9.2 mph - N/A   Overcast
6:54 AM 19.9 °F 7.3 °F 15.1 °F 81% 29.70 in 10.0 mi WNW 12.7 mph - N/A   Overcast
7:33 AM 19.4 °F 7.9 °F 15.8 °F 86% 29.66 in 4.0 mi WNW 10.4 mph - 0.00 in Snow Light Snow
7:54 AM 19.0 °F 8.2 °F 14.0 °F 81% 29.71 in 8.0 mi WNW 9.2 mph - 0.00 in   Overcast
8:05 AM 19.4 °F 9.5 °F 15.8 °F 86% 29.66 in 10.0 mi West 8.1 mph - N/A   Overcast
8:54 AM 21.0 °F 9.9 °F 15.1 °F 78% 29.71 in 10.0 mi NW 10.4 mph - N/A   Overcast
9:25 AM 21.2 °F 10.1 °F 15.8 °F 80% 29.65 in 9.0 mi WNW 10.4 mph - N/A   Overcast
9:47 AM 21.2 °F 10.1 °F 15.8 °F 80% 29.64 in 4.0 mi WNW 10.4 mph - 0.00 in Snow Light Snow
9:54 AM 23.0 °F 13.9 °F 16.0 °F 74% 29.69 in 2.5 mi NW 8.1 mph - 0.00 in Snow Light Snow
10:08 AM 23.0 °F 12.4 °F 17.6 °F 80% 29.64 in 4.0 mi WNW 10.4 mph - 0.00 in Snow Light Snow
10:20 AM 23.0 °F 12.4 °F 17.6 °F 80% 29.64 in 2.0 mi NW 10.4 mph - 0.00 in Snow Light Snow
10:39 AM 23.0 °F 11.7 °F 17.6 °F 80% 29.64 in 3.0 mi WNW 11.5 mph - 0.00 in Snow Light Snow
10:54 AM 23.0 °F 13.9 °F 17.1 °F 78% 29.68 in 6.0 mi NW 8.1 mph - 0.00 in   Haze
11:16 AM 24.8 °F 14.6 °F 17.6 °F 74% 29.63 in 1.8 mi WNW 10.4 mph - 0.00 in Snow Light Snow
11:54 AM 24.1 °F 13.7 °F 18.0 °F 77% 29.68 in 1.8 mi WNW 10.4 mph - 0.00 in Snow Light Snow
12:08 PM 24.8 °F 13.4 °F 17.6 °F 74% 29.63 in 2.0 mi NW 12.7 mph - 0.00 in Snow Light Snow
12:34 PM 24.8 °F 13.4 °F 17.6 °F 74% 29.61 in 5.0 mi WNW 12.7 mph - 0.00 in Snow Light Snow
12:54 PM 25.0 °F 13.6 °F 18.0 °F 75% 29.66 in 2.5 mi WNW 12.7 mph - 0.00 in Snow Light Snow
1:09 PM 24.8 °F 14.0 °F 17.6 °F 74% 29.61 in 4.0 mi NW 11.5 mph 19.6 mph 0.00 in   Haze
1:54 PM 25.0 °F 13.1 °F 19.0 °F 78% 29.65 in 7.0 mi NW 13.8 mph - 0.00 in   Overcast
2:15 PM 24.8 °F 12.9 °F 19.4 °F 80% 29.61 in 1.8 mi WNW 13.8 mph - 0.00 in Snow Light Snow
2:54 PM 25.0 °F 15.5 °F 19.9 °F 81% 29.66 in 2.5 mi WNW 9.2 mph - 0.00 in Snow Light Snow
3:32 PM 24.8 °F 13.4 °F 19.4 °F 80% 29.61 in 1.2 mi WNW 12.7 mph 18.4 mph 0.00 in Snow Light Snow
3:54 PM 25.0 °F 14.2 °F 19.9 °F 81% 29.66 in 1.8 mi NW 11.5 mph - 0.00 in Snow Light Snow
4:21 PM 26.6 °F 17.5 °F 21.2 °F 80% 29.61 in 6.0 mi WNW 9.2 mph 17.3 mph 0.00 in Snow Light Snow
4:54 PM 25.0 °F 15.5 °F 19.9 °F 81% 29.67 in 5.0 mi NW 9.2 mph - 0.00 in Snow Light Snow
5:54 PM 25.0 °F 14.8 °F 19.0 °F 78% 29.68 in 10.0 mi NW 10.4 mph 20.7 mph 0.00 in   Overcast
6:54 PM 25.0 °F 15.5 °F 17.1 °F 72% 29.69 in 10.0 mi WNW 9.2 mph 21.9 mph N/A   Overcast
7:54 PM 24.1 °F 11.0 °F 16.0 °F 71% 29.70 in 10.0 mi West 16.1 mph 20.7 mph N/A   Overcast
8:54 PM 21.9 °F 9.8 °F 16.0 °F 78% 29.72 in 10.0 mi WNW 12.7 mph 21.9 mph N/A   Overcast
9:54 PM 21.9 °F 10.4 °F 16.0 °F 78% 29.73 in 10.0 mi West 11.5 mph 24.2 mph N/A   Overcast
10:54 PM 21.0 °F 10.6 °F 15.1 °F 78% 29.73 in 10.0 mi WNW 9.2 mph 17.3 mph N/A   Overcast
11:54 PM 21.0 °F 8.1 °F 16.0 °F 81% 29.72 in 10.0 mi WNW 13.8 mph - N/A   Overcast